Regional Weather Roundup
Issued by NWS

Home | Current Version | Previous Version | Text Only | Print | Product List | Glossary Off
Versions: 1 2 3 4 5 6 7 8 9 10 11 12 13 14 15 16 17 18 19 20 21 22 23 24 25 26 27 28 29 30 31 32 33 34 35 36 37 38 39 40 41 42 43 44 45 46 47 48 49 50

000
ASUS43 KOAX 200210
RWRNE

WEATHER ROUNDUP FOR NEBRASKA
NATIONAL WEATHER SERVICE OMAHA NE
800 PM CST SUN FEB 19 2017

NOTES: SATELLITE DATA IS BEING USED TO AUGMENT CLOUD COVER ABOVE
       12000 FEET.
       "FAIR" INDICATES FEW OR NO CLOUDS BELOW 12,000 FEET WITH NO
       SIGNIFICANT WEATHER AND/OR OBSTRUCTIONS TO VISIBILITY.

  * THESE STATIONS DO NOT REPORT WEATHER SUCH AS RAIN...SNOW OR FOG.

NEZ001>004-019>022-054>056-200300-
NEBRASKA PANHANDLE

CITY           SKY/WX    TMP DP  RH WIND       PRES   REMARKS
SCOTTSBLUFF    CLOUDY    50  32  50 NW8       29.58R
ALLIANCE       CLOUDY    46  34  62 SE5       29.58R
CHADRON        CLOUDY    52  34  50 W6        29.57R
KIMBALL        CLOUDY    53  35  50 S10       29.60S
SIDNEY         CLOUDY    52  35  52 S10       29.60R
$$

NEZ057>060-069>072-079>082-200300-
SOUTHWEST NEBRASKA

CITY           SKY/WX    TMP DP  RH WIND       PRES   REMARKS
NORTH PLATTE   PTCLDY    63  50  62 S14       29.64R
IMPERIAL       MOCLDY    63  33  32 S25G32    29.59F
LEXINGTON      CLOUDY    60  47  61 SE21      29.69S
MCCOOK         PTCLDY    64  49  57 S18       29.67R
OGALLALA       CLOUDY    62  40  43 SE15      29.58R
$$

NEZ005>010-023>029-035>040-094-200300-
NORTH CENTRAL NEBRASKA

CITY           SKY/WX    TMP DP  RH WIND       PRES   REMARKS
VALENTINE      MOCLDY    55  39  54 W3        29.60R
AINSWORTH      LGT RAIN  60  47  62 S33G44    29.63S
BROKEN BOW     PTCLDY    61  47  59 S16G25    29.67S
O`NEILL        MOCLDY    60  48  65 S15G21    29.67R
ORD            PTCLDY    59  47  64 SE14      29.69R
THEDFORD       CLOUDY    59  46  62 SE10      29.64S
$$

NEZ041-046>049-061>064-073>077-083>087-200300-
SOUTH CENTRAL NEBRASKA

CITY           SKY/WX    TMP DP  RH WIND       PRES   REMARKS
GRAND ISLAND   CLOUDY    55  49  80 S17       29.76R
AURORA         CLOUDY    56  50  82 S20G26    29.77S
HASTINGS       MOCLDY    57  49  74 S15       29.76F
HEBRON         MOCLDY    56  50  81 S14       29.80F
HOLDREGE       PTCLDY    57  47  70 SE20G25   29.72S
KEARNEY *      PTCLDY    55  46  71 S21G26    29.73F
YORK           MOCLDY    55  50  82 S18       29.79S
$$

NEZ011>018-030>034-042>045-200300-
NORTHEAST NEBRASKA

CITY           SKY/WX    TMP DP  RH WIND       PRES   REMARKS
NORFOLK        PTCLDY    59  49  69 S20       29.72S
ALBION         MOCLDY    58  49  73 S14       29.74R
BLAIR          CLOUDY    63  53  70 S12       29.79F
FREMONT        CLOUDY    60  51  73 SE12      29.78F
TEKAMAH        CLOUDY    56  50  80 S10       29.77S
WAYNE          CLOUDY    57  49  75 S17       29.73S
$$

NEZ050>053-065>068-078-088>093-200300-
SOUTHEAST NEBRASKA

CITY           SKY/WX    TMP DP  RH WIND       PRES   REMARKS
LINCOLN        PTCLDY    57  51  80 S15       29.82R
OMAHA EPPLEY   CLOUDY    60  50  69 S10       29.80S
BEATRICE       CLEAR     57  53  86 S16G22    29.83S
FALLS CITY     CLOUDY    60  54  80 S12       29.85S
NEBRASKA CITY  PTCLDY    59  51  74 S15       29.84S
PLATTSMOUTH    CLOUDY    60  49  66 S10       29.82S
$$

NEZ044-045-051>053-067-200300-
OMAHA AREA

CITY           SKY/WX    TMP DP  RH WIND       PRES   REMARKS
OMAHA EPPLEY   CLOUDY    60  50  69 S10       29.80S
BLAIR          CLOUDY    63  53  70 S12       29.79F
FREMONT        CLOUDY    60  51  73 SE12      29.78F
MILLARD        PTCLDY    63  54  72 SE9       29.80S
OFFUTT AFB     PTCLDY    61  55  81 S7        29.81S
PLATTSMOUTH    CLOUDY    60  49  66 S10       29.82S
WAHOO          FAIR      57  50  77 S17       29.80R
$$




USA.gov is the U.S. government's official web portal to all federal, state and local government web resources and services.